Macomb, IL

1:53 PM CDT on August 18, 2017 (GMT -0500)
Macomb Municipal

Weather History for KMQB - November, 2012

Change the Weather History Date:

Monday, November 19, 2012

  Actual Average (KBRL) Record (KBRL)
Temperature  
Mean Temperature 47 °F -  
Max Temperature 53 °F 50 °F 77 °F (1942)
Min Temperature 41 °F 34 °F 6 °F (1914)
Degree Days  
Heating Degree Days 18    
Moisture  
Dew Point 41 °F    
Average Humidity 80    
Maximum Humidity 93    
Minimum Humidity 66    
Precipitation  
Precipitation 0.10 in - - ()
Sea Level Pressure  
Sea Level Pressure 30.19 in    
Wind  
Wind Speed 7 mph (South)    
Max Wind Speed 13 mph    
Max Gust Speed 17 mph    
Visibility 10 miles    
Events Rain    
Averages and records for this station are not official NWS values.
T = Trace of Precipitation, MM = Missing Value Source: NWS Daily Summary

Daily Weather History Graph

Daily Weather History Graph

Search for Another Location

Airport or City:

Trip Planner

Search our weather history database for the weather conditions in past years. The results will help you decide how hot, cold, wet, or windy it might be!

Date:

Astronomy

Nov. 19, 2012 Rise Set
Actual Time 6:54 AM CST 4:41 PM CST
Civil Twilight 6:24 AM CST 5:11 PM CST
Nautical Twilight 5:51 AM CST 5:44 PM CST
Astronomical Twilight 5:18 AM CST 6:16 PM CST
Moon 11:56 AM CST (11/19) 11:09 PM CST (11/19)
Length of Visible Light 10h 46m
Length of Day
9h 47m
Waxing Crescent, 41% of the Moon is Illuminated
Nov 19
Waxing Crescent
Nov 20
First Quarter
Nov 28
Full
Dec 6
Last Quarter
Dec 13
New

Hourly Weather History & Observations

Time (CST) Temp. Windchill Dew Point Humidity Pressure Visibility Wind Dir Wind Speed Gust Speed Precip Events Conditions
12:15 AM 41.9 °F 38.2 °F 34.7 °F 76% 30.28 in 10.0 mi SSE 5.8 mph - N/A   Clear
12:35 AM 42.8 °F 38.6 °F 35.2 °F 75% 30.28 in 10.0 mi South 6.9 mph - N/A   Clear
12:55 AM 43.2 °F 37.9 °F 35.4 °F 74% 30.28 in 10.0 mi South 9.2 mph - N/A   Clear
1:15 AM 44.6 °F 40.2 °F 35.6 °F 71% 30.27 in 10.0 mi South 8.1 mph - N/A   Clear
1:35 AM 44.6 °F 40.2 °F 35.6 °F 71% 30.27 in 10.0 mi SSE 8.1 mph - N/A   Clear
1:55 AM 44.6 °F 39.7 °F 35.6 °F 71% 30.27 in 10.0 mi SSE 9.2 mph - N/A   Clear
2:15 AM 44.1 °F 39.0 °F 35.6 °F 72% 30.26 in 10.0 mi SSE 9.2 mph - N/A   Clear
2:35 AM 44.2 °F 41.0 °F 35.6 °F 72% 30.27 in 10.0 mi South 5.8 mph - N/A   Clear
2:55 AM 44.6 °F 40.7 °F 35.6 °F 71% 30.26 in 10.0 mi SSE 6.9 mph - N/A   Scattered Clouds
3:15 AM 43.0 °F 38.8 °F 35.8 °F 76% 30.25 in 10.0 mi SSE 6.9 mph - N/A   Scattered Clouds
3:35 AM 43.0 °F 38.8 °F 35.6 °F 75% 30.26 in 10.0 mi South 6.9 mph - N/A   Clear
3:55 AM 42.8 °F 38.6 °F 35.2 °F 75% 30.26 in 10.0 mi SSE 6.9 mph - N/A   Clear
4:15 AM 42.8 °F 40.1 °F 35.2 °F 75% 30.25 in 10.0 mi SSE 4.6 mph - N/A   Clear
4:35 AM 43.5 °F 40.1 °F 35.6 °F 74% 30.25 in 10.0 mi SSE 5.8 mph - N/A   Scattered Clouds
4:55 AM 43.2 °F 39.7 °F 35.6 °F 75% 30.25 in 10.0 mi SSE 5.8 mph - N/A   Scattered Clouds
5:15 AM 43.0 °F 40.3 °F 35.8 °F 76% 30.25 in 10.0 mi South 4.6 mph - N/A   Clear
5:35 AM 44.1 °F 40.1 °F 35.8 °F 73% 30.25 in 10.0 mi South 6.9 mph - N/A   Scattered Clouds
5:55 AM 44.8 °F 41.0 °F 35.8 °F 71% 30.24 in 10.0 mi South 6.9 mph - N/A   Mostly Cloudy
6:15 AM 45.5 °F 43.2 °F 36.0 °F 69% 30.23 in 10.0 mi SSE 4.6 mph - N/A   Overcast
6:35 AM 45.9 °F 40.8 °F 35.8 °F 68% 30.24 in 10.0 mi South 10.4 mph - N/A   Overcast
6:55 AM 45.9 °F 41.7 °F 36.0 °F 68% 30.24 in 10.0 mi South 8.1 mph - N/A   Mostly Cloudy
7:15 AM 46.4 °F 42.9 °F 36.1 °F 67% 30.25 in 10.0 mi South 6.9 mph - N/A   Mostly Cloudy
7:35 AM 46.8 °F - 36.3 °F 67% 30.24 in 10.0 mi South 6.9 mph - N/A   Scattered Clouds
7:55 AM 46.6 °F - 36.9 °F 69% 30.24 in 10.0 mi South 8.1 mph - N/A   Mostly Cloudy
8:15 AM 47.5 °F - 36.7 °F 66% 30.24 in 10.0 mi South 5.8 mph - N/A   Overcast
8:35 AM 48.4 °F - 37.4 °F 66% 30.25 in 10.0 mi South 8.1 mph - N/A   Overcast
8:55 AM 47.7 °F - 38.5 °F 70% 30.25 in 10.0 mi South 6.9 mph - 0.01 in Rain Rain
9:15 AM 46.8 °F - 39.9 °F 77% 30.25 in 10.0 mi South 6.9 mph - N/A Rain Light Rain
9:35 AM 46.9 °F - 40.5 °F 78% 30.25 in 10.0 mi South 4.6 mph - 0.01 in Rain Light Rain
9:55 AM 46.8 °F - 41.2 °F 81% 30.25 in 7.0 mi South 8.1 mph - 0.03 in Rain Rain
10:15 AM 46.8 °F - 41.9 °F 83% 30.25 in 7.0 mi South 8.1 mph - 0.02 in Rain Rain
10:35 AM 47.8 °F - 43.7 °F 86% 30.24 in 10.0 mi South 6.9 mph - 0.03 in Rain Light Rain
10:55 AM 48.4 °F - 43.3 °F 83% 30.24 in 10.0 mi South 9.2 mph - 0.03 in Rain Light Rain
11:15 AM 48.4 °F - 43.7 °F 84% 30.23 in 7.0 mi South 9.2 mph - N/A Rain Light Rain
11:35 AM 48.2 °F - 43.9 °F 85% 30.23 in 7.0 mi South 6.9 mph - N/A Rain Light Rain
11:55 AM 48.2 °F - 44.6 °F 87% 30.22 in 7.0 mi South 6.9 mph - N/A Rain Light Rain
12:15 PM 49.3 °F - 44.8 °F 84% 30.21 in 10.0 mi South 9.2 mph - N/A   Overcast
12:35 PM 50.0 °F - 43.9 °F 79% 30.20 in 10.0 mi South 8.1 mph - N/A   Overcast
12:55 PM 50.2 °F - 44.1 °F 79% 30.19 in 10.0 mi South 9.2 mph - N/A   Overcast
1:15 PM 50.0 °F - 44.2 °F 81% 30.19 in 10.0 mi South 9.2 mph - N/A   Overcast
1:35 PM 50.2 °F - 43.9 °F 79% 30.17 in 10.0 mi SSE 9.2 mph - N/A Rain Light Rain
1:55 PM 50.4 °F - 43.9 °F 78% 30.16 in 10.0 mi South 10.4 mph - N/A   Overcast
2:15 PM 51.1 °F - 45.0 °F 80% 30.15 in 10.0 mi SSE 11.5 mph - N/A   Overcast
2:35 PM 52.2 °F - 45.1 °F 77% 30.14 in 10.0 mi SSE 11.5 mph - N/A   Overcast
2:55 PM 53.6 °F - 46.4 °F 77% 30.13 in 10.0 mi SSE 12.7 mph - N/A   Overcast
3:15 PM 53.8 °F - 46.4 °F 76% 30.13 in 10.0 mi South 9.2 mph - N/A   Overcast
3:35 PM 53.6 °F - 46.6 °F 77% 30.13 in 10.0 mi South 12.7 mph 17.3 mph N/A   Mostly Cloudy
3:55 PM 53.6 °F - 46.4 °F 77% 30.12 in 10.0 mi SSE 11.5 mph - N/A   Scattered Clouds
4:15 PM 52.2 °F - 46.2 °F 80% 30.13 in 10.0 mi South 5.8 mph - N/A   Clear
4:36 PM 48.2 °F - 44.6 °F 87% 30.13 in 0.2 mi SSE 5.8 mph - N/A   Overcast
4:56 PM 48.2 °F - 44.6 °F 87% 30.13 in 10.0 mi South 5.8 mph - 0.03 in   Mostly Cloudy
5:16 PM 48.2 °F - 44.6 °F 87% 30.13 in 10.0 mi South 3.5 mph - N/A   Overcast
5:36 PM 48.2 °F - 44.6 °F 87% 30.13 in 10.0 mi Calm Calm - N/A   Overcast
5:56 PM 48.2 °F - 44.6 °F 87% 30.13 in 10.0 mi SSE 3.5 mph - N/A   Overcast
6:16 PM 48.2 °F - 44.6 °F 87% 30.13 in 10.0 mi SSE 5.8 mph - N/A   Overcast
6:35 PM 46.4 °F 44.3 °F 44.6 °F 93% 30.13 in 10.0 mi South 4.6 mph - N/A   Overcast
6:55 PM 46.4 °F 45.2 °F 42.8 °F 87% 30.14 in 10.0 mi SSW 3.5 mph - N/A   Overcast
7:15 PM 46.4 °F 45.2 °F 42.8 °F 87% 30.14 in 10.0 mi South 3.5 mph - N/A   Overcast
7:36 PM 46.4 °F 45.2 °F 42.8 °F 87% 30.14 in 10.0 mi South 3.5 mph - N/A   Overcast
7:56 PM 44.6 °F 43.1 °F 42.8 °F 93% 30.14 in 10.0 mi South 3.5 mph - N/A   Mostly Cloudy
8:16 PM 44.6 °F 41.4 °F 42.8 °F 93% 30.13 in 10.0 mi South 5.8 mph - N/A   Mostly Cloudy
8:35 PM 44.6 °F 42.2 °F 42.8 °F 93% 30.13 in 10.0 mi SSW 4.6 mph - N/A   Mostly Cloudy
8:55 PM 44.6 °F 42.2 °F 42.8 °F 93% 30.13 in 10.0 mi SSW 4.6 mph - N/A   Overcast
9:16 PM 44.6 °F 43.1 °F 42.8 °F 93% 30.13 in 10.0 mi South 3.5 mph - N/A   Overcast
9:36 PM 46.4 °F - 42.8 °F 87% 30.13 in 10.0 mi Calm Calm - N/A   Overcast
9:55 PM 46.4 °F - 42.8 °F 87% 30.12 in 10.0 mi Calm Calm - N/A   Overcast
10:16 PM 44.6 °F - 42.8 °F 93% 30.11 in 10.0 mi Calm Calm - N/A   Overcast
10:35 PM 44.6 °F 42.2 °F 42.8 °F 93% 30.11 in 10.0 mi SSE 4.6 mph - N/A   Mostly Cloudy
10:57 PM 42.8 °F 41.1 °F 41.0 °F 93% 30.11 in 7.0 mi SE 3.5 mph - N/A   Clear
11:16 PM 42.8 °F 41.1 °F 41.0 °F 93% 30.10 in 7.0 mi South 3.5 mph - N/A   Clear
11:36 PM 42.8 °F 41.1 °F 39.2 °F 87% 30.10 in 7.0 mi South 3.5 mph - N/A   Clear
11:56 PM 41.0 °F - 39.2 °F 93% 30.10 in 7.0 mi Calm Calm - N/A   Clear